Terminal Aerodrome Forecast
Issued by NWS

Home | Current Version | Previous Version | Text Only | Print | Product List | Glossary On
Versions: 1 2 3 4 5 6 7 8 9 10 11 12 13 14 15 16 17 18 19 20 21 22 23 24 25 26 27 28
000
FTUS46 KEKA 300500
TAFCEC
TAF
KCEC 300539Z 3006/3106 16007KT 3/4SM BR OVC002
      TEMPO 3010/3012 1/2SM FG
     FM301200 VRB03KT 1/4SM FG OVC001
     FM301600 20003KT 1SM BR OVC002
     FM301900 26005KT 3SM BR OVC004
     FM302100 26008KT P6SM BKN005=

USA.gov is the U.S. government's official web portal to all federal, state and local government web resources and services.